Probability
48 42 42 32 0 0 0 0 0 0 0 0 0 0 0 0 0 0 10 0 3 10 35 55 81 90 90 87 87 84 84 87 90 94 94 94 94 87 84 81 74 68 71 68 71 71 71 65 65
48 39 29 16 0 0 0 0 0 0 0 3 3 3 0 0 0 0 3 3 10 16 42 68 87 87 84 87 90 94 94 94 94 94 97 97 94 87 84 81 84 84 74 71 68 68 68 61 48
35 29 16 0 0 0 0 0 0 0 3 3 3 3 0 3 0 0 3 3 13 29 52 81 90 84 84 90 90 94 94 97 97 97 97 97 94 90 94 90 77 81 74 74 68 68 58 55 42
35 13 3 0 0 0 0 0 0 0 3 3 3 0 3 6 3 0 3 10 16 39 48 74 90 90 87 90 90 97 94 90 94 94 97 94 87 90 90 90 74 77 71 65 61 65 58 55 48
16 3 0 0 0 0 0 0 0 0 0 0 0 0 6 19 13 6 10 13 19 35 52 61 94 94 94 97 94 94 90 97 100 90 90 94 90 90 87 90 81 74 71 71 68 65 58 52 39
3 0 0 0 0 0 0 0 0 0 0 0 0 0 10 23 10 3 6 23 32 35 52 65 97 100 100 100 94 94 97 94 97 94 94 90 90 94 94 84 87 74 71 71 74 65 58 55 58
0 0 0 0 0 0 0 0 0 0 0 0 0 0 10 10 13 13 16 26 23 32 58 65 61 84 77 87 90 94 97 97 97 90 87 87 90 90 81 77 77 77 74 68 68 61 61 55 52
0 0 0 0 0 0 0 0 0 0 0 0 0 0 0 19 13 19 16 26 26 29 45 48 55 65 61 68 81 87 90 90 94 90 87 87 84 81 68 81 74 81 74 61 65 48 48 68 65
0 0 0 0 0 0 0 0 0 0 0 0 0 0 13 19 13 19 16 26 26 35 45 35 29 42 42 45 61 74 81 81 84 87 77 77 61 52 68 65 81 68 58 55 61 55 45 52 58
0 0 0 0 0 0 0 0 0 0 0 0 6 16 16 26 19 19 19 10 16 32 29 39 42 48 52 32 77 71 58 71 81 84 68 71 81 71 45 68 71 68 52 58 61 52 48 42 45
0 0 0 0 0 0 0 0 0 0 0 3 3 13 16 19 16 23 19 19 19 23 19 32 42 61 52 61 48 58 68 74 65 68 65 84 68 61 65 84 84 87 58 61 32 42 42 32 58
0 0 0 0 0 0 0 0 0 0 0 3 3 10 13 19 23 26 23 19 19 29 39 29 35 61 81 68 42 39 39 61 52 65 58 45 58 55 65 61 58 58 71 71 42 58 52 52 42
3 0 0 0 0 0 0 0 3 3 3 6 10 13 19 19 23 26 26 23 32 39 45 58 71 81 87 90 77 48 61 48 55 74 65 55 48 48 35 68 74 48 39 52 65 42 45 39 35
3 0 0 0 0 3 0 0 3 3 3 6 6 6 13 26 29 42 39 39 39 45 45 61 77 81 87 87 81 68 65 81 65 58 61 58 55 52 45 65 68 48 35 35 45 39 48 35 42
3 0 0 0 0 3 3 3 3 3 6 6 6 10 13 29 42 52 39 52 52 55 58 65 68 71 87 77 68 58 68 61 65 58 61 65 58 58 52 48 52 48 45 55 52 42 32 39 26
3 0 3 0 0 3 3 3 3 6 6 6 6 10 32 48 42 48 45 61 65 71 74 74 55 68 84 90 87 74 71 71 71 65 61 61 58 55 55 48 42 58 45 42 52 45 32 39 29
0 0 3 3 0 0 0 0 3 6 10 10 10 16 23 52 55 52 58 58 68 81 81 84 74 77 74 84 87 77 81 81 71 74 71 61 58 58 52 61 68 65 55 52 48 39 45 48 52
0 0 0 3 0 0 0 0 3 3 10 10 13 16 29 35 45 61 55 45 68 77 81 81 81 84 84 84 84 81 71 74 77 74 71 71 71 58 55 61 65 45 52 61 58 71 71 77 58
0 0 3 3 0 0 0 0 3 6 10 13 16 19 23 29 39 45 55 48 65 74 74 84 87 90 90 81 77 77 74 77 71 61 65 68 68 68 65 45 65 74 65 68 48 65 55 52 58
0 3 3 3 0 3 3 6 6 10 10 19 19 19 26 26 45 61 58 65 74 81 74 81 81 87 90 87 84 84 77 71 65 68 71 71 61 65 48 68 65 65 77 61 61 74 61 45 42
0 0 3 3 6 10 6 3 10 13 19 32 26 29 29 32 45 61 65 71 71 81 81 74 81 84 87 84 68 71 77 74 81 77 81 71 58 55 58 65 55 68 61 68 74 71 68 61 45
0 3 3 3 3 3 6 0 16 23 32 32 32 32 29 35 48 52 68 71 74 74 74 77 77 81 84 77 65 65 77 71 84 81 77 74 61 58 58 55 61 65 58 71 65 55 74 71 61
3 3 3 3 0 0 6 0 3 19 16 29 35 35 35 45 45 65 68 77 74 71 74 77 77 81 81 81 81 81 71 71 68 74 74 71 61 58 61 58 61 68 65 58 61 68 68 71 68
3 3 3 0 0 0 0 0 0 10 16 16 32 45 42 52 45 61 65 74 74 71 74 74 81 81 81 81 77 87 81 74 71 71 58 55 58 58 52 52 61 68 55 58 58 65 55 65 61
0 0 0 0 0 0 3 0 0 10 10 13 26 45 45 55 55 65 68 84 74 77 77 77 81 84 77 77 77 77 77 74 68 65 55 52 55 52 55 48 58 55 58 52 55 61 55 58 58
0 0 0 0 0 0 3 0 6 23 23 13 23 35 45 55 58 55 68 71 81 81 81 81 81 81 74 74 77 77 71 65 58 58 52 52 52 48 52 48 48 48 48 48 52 48 52 55 61
0 0 0 0 0 0 0 3 10 26 29 26 29 39 55 58 48 55 61 61 74 81 84 84 81 81 74 74 74 77 74 71 65 65 65 48 58 52 48 45 42 35 42 42 42 39 45 42 48
0 0 0 0 0 0 0 0 6 23 29 35 45 55 61 68 61 55 68 58 61 81 84 81 81 81 81 74 74 71 68 68 68 65 61 58 55 52 48 48 39 35 35 39 42 39 35 35 29
0 0 0 0 0 0 0 0 3 26 26 32 45 48 61 61 65 65 74 71 68 74 81 77 81 77 81 74 74 71 68 65 65 58 55 55 52 48 55 48 39 35 35 32 35 35 35 23 29
0 0 0 0 0 0 0 3 13 23 16 23 39 45 68 68 71 68 68 84 81 74 71 77 77 77 77 74 74 71 68 68 65 55 55 55 52 52 45 39 42 32 32 32 35 32 29 29 23
Height
5905 5904 5903 5902 5902 5901 5899 5897 5895 5893 5892 5891 5890 5889 5888 5888 5888 5889 5886 5883 5883 5882 5882 5881 5881 5881 5881 5881 5880 5880 5879 5879 5879 5879 5878 5878 5878 5878 5879 5879 5880 5880 5881 5881 5882 5882 5883 5884 5884
5907 5906 5906 5905 5905 5903 5901 5899 5896 5895 5894 5892 5891 5890 5889 5888 5888 5887 5885 5885 5884 5883 5883 5882 5882 5882 5882 5881 5881 5881 5880 5880 5880 5880 5880 5880 5880 5880 5880 5881 5881 5881 5882 5883 5883 5884 5884 5885 5886
5910 5909 5909 5909 5907 5905 5903 5900 5898 5896 5895 5893 5893 5892 5891 5890 5889 5887 5886 5886 5885 5884 5884 5883 5883 5883 5883 5883 5882 5882 5882 5882 5881 5881 5881 5881 5882 5882 5882 5882 5883 5883 5883 5884 5884 5885 5886 5886 5887
5913 5912 5912 5913 5909 5907 5905 5902 5900 5898 5897 5895 5894 5893 5892 5891 5890 5889 5888 5887 5886 5885 5885 5884 5884 5884 5884 5884 5883 5883 5883 5883 5883 5882 5883 5883 5883 5883 5884 5884 5885 5885 5885 5886 5886 5887 5887 5888 5888
5916 5915 5917 5915 5912 5910 5907 5904 5902 5900 5899 5897 5896 5895 5894 5893 5892 5891 5889 5889 5888 5887 5886 5886 5885 5885 5885 5884 5884 5884 5884 5884 5884 5883 5884 5884 5884 5885 5885 5886 5886 5886 5887 5887 5888 5888 5888 5889 5890
5919 5920 5921 5917 5915 5912 5910 5907 5905 5903 5901 5900 5898 5897 5896 5895 5894 5893 5891 5890 5889 5888 5888 5887 5887 5886 5886 5886 5885 5885 5885 5885 5885 5885 5885 5885 5885 5886 5886 5887 5888 5888 5888 5889 5889 5889 5890 5890 5891
5923 5923 5922 5920 5917 5915 5913 5910 5907 5906 5904 5902 5901 5900 5898 5897 5896 5895 5893 5892 5891 5890 5889 5888 5888 5887 5887 5886 5886 5886 5886 5886 5886 5886 5886 5886 5887 5887 5888 5888 5888 5889 5889 5890 5891 5891 5891 5891 5892
5925 5926 5924 5922 5920 5918 5916 5913 5910 5908 5907 5905 5903 5902 5900 5899 5898 5897 5895 5894 5893 5892 5891 5890 5889 5888 5888 5887 5887 5887 5887 5887 5887 5886 5887 5887 5887 5888 5888 5889 5889 5890 5891 5891 5892 5892 5892 5893 5893
5928 5931 5928 5925 5923 5921 5918 5915 5913 5911 5909 5907 5906 5904 5903 5901 5900 5899 5897 5896 5895 5894 5892 5891 5890 5889 5889 5888 5888 5888 5888 5888 5887 5887 5887 5888 5888 5889 5889 5890 5890 5891 5892 5892 5893 5893 5893 5894 5894
5932 5932 5930 5927 5925 5923 5920 5918 5916 5913 5911 5910 5908 5906 5905 5903 5902 5901 5899 5898 5897 5895 5894 5893 5892 5891 5890 5889 5889 5889 5888 5888 5888 5888 5888 5889 5889 5889 5890 5890 5891 5892 5892 5893 5893 5894 5894 5894 5895
5934 5933 5931 5929 5927 5925 5922 5920 5918 5916 5914 5913 5911 5909 5907 5905 5904 5902 5901 5900 5898 5897 5896 5894 5893 5892 5891 5890 5890 5890 5889 5889 5889 5889 5889 5889 5890 5890 5891 5891 5892 5892 5893 5893 5894 5894 5895 5895 5895
5936 5935 5934 5932 5930 5927 5925 5923 5921 5919 5917 5915 5913 5911 5909 5907 5905 5904 5903 5901 5900 5899 5897 5896 5895 5893 5892 5892 5891 5891 5890 5890 5890 5890 5890 5890 5890 5891 5891 5892 5892 5893 5893 5893 5894 5894 5895 5895 5896
5938 5937 5936 5934 5932 5930 5928 5926 5924 5921 5919 5917 5915 5913 5911 5909 5907 5905 5904 5903 5902 5900 5899 5897 5896 5895 5893 5893 5892 5892 5891 5891 5891 5891 5891 5891 5891 5891 5892 5892 5893 5893 5893 5894 5894 5895 5895 5896 5896
5940 5939 5938 5937 5935 5933 5931 5928 5927 5924 5922 5920 5918 5916 5914 5912 5910 5907 5905 5904 5903 5902 5900 5899 5897 5896 5895 5894 5893 5893 5892 5892 5891 5891 5891 5892 5892 5892 5892 5893 5893 5893 5894 5894 5895 5895 5895 5896 5896
5941 5941 5940 5939 5937 5935 5933 5931 5929 5927 5925 5922 5920 5918 5916 5914 5912 5910 5908 5906 5904 5903 5902 5901 5899 5898 5897 5896 5895 5894 5893 5892 5892 5892 5892 5892 5893 5893 5893 5893 5893 5894 5894 5894 5895 5895 5895 5896 5896
5943 5943 5943 5941 5939 5938 5937 5935 5932 5929 5927 5925 5923 5921 5919 5917 5914 5912 5910 5908 5906 5905 5903 5902 5901 5899 5898 5897 5896 5895 5895 5894 5893 5893 5893 5893 5893 5893 5893 5894 5894 5894 5894 5894 5895 5895 5895 5896 5895
5944 5945 5944 5943 5941 5940 5938 5937 5934 5932 5930 5927 5925 5923 5921 5919 5917 5915 5912 5910 5908 5906 5905 5904 5903 5901 5900 5899 5898 5897 5896 5895 5894 5894 5894 5894 5894 5893 5893 5893 5893 5893 5894 5894 5895 5895 5895 5895 5895
5946 5946 5945 5944 5943 5941 5940 5938 5936 5934 5932 5930 5928 5926 5924 5921 5919 5917 5914 5912 5910 5908 5907 5906 5904 5903 5902 5901 5900 5898 5898 5897 5896 5895 5895 5894 5894 5894 5893 5893 5893 5893 5894 5894 5895 5895 5894 5894 5894
5945 5946 5946 5945 5944 5943 5941 5940 5938 5936 5934 5932 5930 5928 5926 5924 5922 5919 5917 5915 5913 5911 5909 5908 5906 5905 5903 5902 5901 5900 5899 5898 5897 5896 5895 5895 5895 5894 5894 5894 5894 5894 5894 5894 5894 5894 5893 5893 5893
5944 5945 5945 5945 5944 5943 5942 5941 5940 5938 5936 5934 5932 5930 5928 5926 5924 5922 5919 5917 5915 5913 5911 5910 5908 5907 5905 5904 5902 5901 5900 5899 5898 5897 5897 5896 5896 5895 5894 5894 5894 5893 5893 5893 5893 5893 5892 5892 5892
5943 5945 5945 5945 5944 5943 5943 5942 5941 5940 5937 5935 5934 5932 5930 5928 5926 5924 5921 5919 5917 5915 5913 5912 5910 5908 5907 5905 5904 5903 5901 5900 5899 5899 5898 5897 5896 5895 5895 5894 5893 5893 5893 5892 5892 5891 5891 5891 5890
5942 5942 5943 5944 5944 5945 5944 5945 5943 5940 5939 5937 5935 5933 5931 5929 5927 5925 5923 5921 5919 5917 5915 5913 5912 5910 5909 5907 5906 5904 5903 5902 5901 5900 5899 5898 5897 5896 5895 5894 5893 5893 5892 5891 5891 5890 5890 5889 5889
5939 5940 5942 5943 5944 5945 5944 5945 5945 5941 5939 5938 5936 5934 5932 5930 5929 5927 5925 5923 5921 5919 5917 5915 5914 5912 5911 5909 5907 5906 5904 5903 5902 5900 5900 5898 5897 5896 5895 5893 5892 5891 5891 5890 5889 5889 5888 5887 5887
5937 5939 5940 5941 5943 5945 5944 5944 5945 5942 5940 5938 5937 5935 5933 5931 5930 5928 5926 5924 5922 5920 5918 5917 5915 5914 5912 5910 5909 5907 5905 5904 5902 5901 5900 5898 5897 5895 5894 5892 5891 5890 5889 5888 5887 5886 5886 5885 5884
5934 5938 5941 5942 5944 5944 5943 5943 5943 5941 5940 5938 5937 5935 5933 5932 5930 5929 5927 5925 5923 5921 5920 5918 5917 5915 5913 5912 5910 5908 5906 5905 5903 5901 5900 5898 5896 5895 5893 5891 5890 5888 5887 5886 5885 5884 5884 5883 5882
5931 5936 5939 5942 5943 5943 5941 5941 5942 5940 5939 5938 5937 5935 5934 5932 5930 5929 5927 5926 5924 5922 5921 5919 5917 5916 5914 5913 5911 5909 5908 5906 5904 5902 5900 5898 5896 5894 5892 5890 5888 5887 5886 5884 5883 5882 5881 5880 5880
5927 5931 5935 5937 5938 5940 5940 5939 5939 5938 5938 5937 5936 5935 5934 5932 5930 5929 5928 5926 5924 5922 5921 5919 5918 5916 5915 5913 5911 5910 5908 5906 5904 5902 5900 5898 5896 5893 5891 5889 5887 5886 5884 5883 5881 5880 5879 5878 5877
5924 5927 5930 5933 5935 5937 5938 5938 5938 5936 5936 5936 5935 5934 5933 5932 5930 5929 5927 5926 5924 5922 5921 5919 5918 5916 5915 5913 5911 5910 5908 5906 5904 5902 5900 5897 5895 5893 5890 5888 5886 5884 5882 5881 5879 5878 5876 5875 5874
5919 5922 5924 5928 5930 5933 5936 5938 5934 5934 5934 5934 5933 5932 5932 5931 5929 5928 5927 5925 5924 5922 5920 5919 5917 5916 5915 5913 5911 5910 5908 5906 5904 5902 5899 5897 5894 5892 5889 5887 5884 5882 5880 5878 5876 5875 5873 5872 5870
5914 5917 5920 5923 5925 5927 5930 5934 5930 5930 5931 5931 5931 5930 5930 5929 5928 5927 5926 5924 5923 5921 5920 5918 5917 5915 5914 5912 5911 5909 5907 5905 5903 5900 5898 5895 5893 5890 5887 5885 5882 5880 5878 5875 5874 5872 5870 5868 5867
Wind_Speed
20 19 18 18 20 17 16 16 15 14 13 12 12 12 11 11 9 9 8 8 8 7 7 6 6 6 6 6 7 8 8 9 9 9 9 9 10 10 9 9 8 8 8 9 10 11 11 11 11
20 20 19 21 19 17 17 17 16 16 14 14 13 12 12 10 10 9 9 8 7 7 6 6 6 6 6 6 7 8 9 9 9 9 9 9 9 9 8 8 8 8 8 9 10 10 10 10 9
20 20 21 21 19 18 18 18 17 17 16 15 14 13 12 11 10 10 9 8 8 7 6 6 5 5 6 6 7 8 9 9 9 9 9 9 9 9 9 9 9 8 8 9 10 10 9 9 9
19 20 22 20 20 20 20 19 19 18 17 16 15 14 13 12 11 10 9 8 7 7 6 5 5 5 6 6 7 7 8 8 8 8 8 9 9 9 9 9 9 9 9 9 9 9 9 9 8
19 21 20 19 20 21 21 21 20 19 18 17 16 15 14 13 12 10 9 8 8 7 6 5 5 5 6 6 7 7 7 8 8 8 8 8 9 9 9 9 9 9 9 9 9 8 8 8 8
20 20 17 19 20 21 22 22 21 20 19 18 16 16 14 13 12 11 10 9 8 8 7 6 6 5 6 6 6 7 7 7 8 8 8 8 9 9 9 8 8 8 8 8 8 8 8 8 7
21 18 17 18 19 21 22 22 22 20 20 18 17 16 15 14 13 11 10 10 9 8 7 6 6 6 6 6 6 7 7 6 7 7 8 8 8 8 8 8 8 8 8 8 7 7 7 7 7
19 18 17 19 20 20 21 22 22 21 20 19 18 16 15 14 13 12 11 10 9 8 7 7 6 6 5 5 6 6 6 6 6 7 7 7 7 7 7 7 8 7 7 7 7 6 6 6 6
19 18 17 19 20 20 21 21 21 21 20 19 18 17 15 14 13 12 11 10 9 8 8 7 7 6 5 5 5 5 5 5 6 6 6 6 6 6 6 7 7 7 6 6 6 6 6 5 5
18 16 17 18 19 20 21 21 21 20 20 19 18 17 15 14 13 12 11 10 9 8 8 7 7 6 6 5 5 5 5 5 5 6 6 6 6 6 6 6 7 6 6 6 6 5 5 5 5
16 16 17 18 18 20 21 21 21 20 19 19 18 16 15 14 12 12 11 10 9 9 8 8 7 7 6 6 5 5 5 5 5 5 5 5 5 5 5 6 6 6 5 5 5 5 5 4 3
15 15 16 17 18 19 20 20 21 20 19 19 18 16 15 14 12 11 10 9 9 9 8 8 8 7 6 6 6 5 5 5 5 5 4 5 5 4 5 5 5 5 5 5 4 4 4 3 3
13 14 14 15 16 18 18 19 19 19 19 19 18 17 16 15 13 12 11 10 9 9 9 9 8 8 8 6 6 5 5 5 4 4 4 4 4 4 4 4 3 3 4 4 4 4 3 3 2
10 11 12 13 14 16 18 18 18 18 18 18 18 18 16 15 14 13 12 10 10 10 9 9 9 9 9 7 5 5 5 4 4 4 4 4 3 4 4 3 2 3 3 3 4 4 3 3 2
8 8 10 11 12 14 16 17 17 17 17 17 18 18 17 16 15 14 12 11 11 11 10 10 9 9 9 9 8 7 6 5 4 4 4 3 3 3 3 2 2 2 3 3 3 3 3 3 2
6 6 7 9 11 12 14 16 16 16 16 17 17 17 17 16 15 15 14 12 12 11 11 10 10 9 9 9 9 8 7 6 5 4 4 3 2 1 1 1 1 3 3 3 3 3 3 3 3
4 4 5 6 8 11 12 13 14 15 16 16 16 16 16 16 16 15 14 13 12 12 11 11 10 10 9 10 10 9 8 7 6 5 4 3 2 2 1 1 1 2 3 3 3 3 3 3 3
3 2 2 4 6 8 10 12 13 14 15 15 15 15 15 15 16 15 15 14 13 12 11 11 11 10 9 9 10 10 9 8 7 6 5 4 3 2 1 0 0 1 2 3 3 3 3 4 4
6 4 1 2 4 6 8 10 11 13 14 14 15 14 14 15 15 15 15 14 13 12 12 11 11 11 10 10 10 9 9 9 8 7 5 5 4 3 3 2 1 0 2 2 3 3 4 4 4
7 5 3 2 3 4 6 7 9 11 12 13 14 14 13 13 14 15 14 14 13 13 12 12 11 11 11 10 10 9 9 8 8 7 5 4 4 4 4 3 2 1 1 2 3 3 4 5 5
9 7 5 5 4 3 4 6 8 10 11 12 13 13 12 12 13 14 14 13 13 13 12 11 11 11 11 11 10 10 10 9 8 7 7 6 5 4 4 3 3 2 2 3 4 4 5 5 6
11 10 8 6 4 3 3 4 6 8 9 11 12 12 12 11 12 13 13 13 13 13 12 12 12 11 11 10 10 10 10 10 9 8 8 7 6 6 4 4 4 4 4 4 4 5 6 6 7
14 12 10 8 5 3 3 2 5 6 8 9 10 11 11 11 11 12 12 12 12 12 12 12 12 11 11 11 11 10 10 10 9 9 9 9 8 7 6 6 6 5 5 5 5 6 7 7 8
16 14 11 10 7 6 4 3 4 6 6 7 9 10 10 10 10 10 11 11 11 12 12 12 11 11 11 12 11 11 11 10 10 10 9 9 9 9 8 7 7 6 6 6 6 7 8 8 9
18 14 11 10 9 8 7 5 4 5 6 6 8 9 10 10 9 10 10 10 10 10 11 11 11 11 11 11 11 11 11 11 10 10 11 10 10 10 9 8 8 7 7 7 7 8 8 9 10
20 17 15 12 10 10 10 7 6 6 6 6 7 8 9 9 9 10 9 9 9 9 9 10 10 11 10 10 10 11 11 11 11 11 12 12 12 11 11 9 9 9 9 9 9 9 9 10 10
22 20 17 15 14 11 11 9 7 7 7 7 7 7 8 9 9 10 9 8 8 8 8 9 9 10 10 10 9 10 11 11 11 11 12 13 13 13 11 11 11 10 11 11 11 11 11 11 11
24 21 20 17 15 13 12 10 9 9 8 7 8 8 9 9 9 10 9 8 8 8 8 8 8 9 9 10 9 10 11 12 12 12 12 13 14 14 13 13 12 12 13 12 12 11 12 12 12
26 25 23 20 18 15 13 13 12 10 9 9 9 9 9 9 10 9 9 8 8 8 8 8 7 8 8 9 10 10 11 12 12 13 13 13 14 15 14 14 14 14 14 13 13 13 13 13 13
27 26 25 23 22 19 16 15 14 12 11 10 10 10 9 10 9 9 9 9 8 8 8 8 7 8 8 9 10 10 12 13 13 13 14 14 14 15 15 15 15 15 14 13 14 14 14 14 14
Wind_Direction
63 61 60 61 59 60 63 66 66 68 71 73 73 72 72 71 73 73 75 76 75 77 80 86 96 99 104 111 112 111 108 105 106 106 106 106 107 106 107 111 112 106 104 108 111 113 119 119 120
65 62 60 59 62 61 62 64 66 68 70 72 72 71 68 66 68 71 73 76 77 76 81 91 103 106 109 114 114 114 110 108 107 107 109 110 110 108 107 109 112 110 106 106 108 108 117 116 114
65 62 60 59 61 62 63 64 65 67 69 70 69 67 63 61 61 65 67 70 74 79 82 91 102 103 108 114 117 116 113 111 109 110 112 113 113 112 109 109 112 112 108 107 104 103 109 111 107
65 64 60 61 61 62 63 62 62 64 65 67 66 63 61 58 57 57 58 61 68 78 81 85 93 97 104 111 117 120 118 115 112 112 114 118 119 117 114 113 113 113 113 109 104 104 106 106 106
67 66 62 62 62 62 62 61 61 63 63 63 64 63 61 57 54 55 55 56 61 70 78 81 85 91 98 107 114 119 120 118 118 119 119 120 121 119 116 112 114 115 114 112 108 108 107 105 111
69 68 67 64 62 62 61 61 61 61 62 62 63 62 60 57 54 55 58 58 61 65 71 77 84 89 97 105 111 116 120 118 118 122 122 124 125 123 119 116 117 119 117 118 115 109 110 108 109
73 73 70 66 63 61 61 61 60 59 59 58 58 58 57 55 53 52 56 59 61 63 66 73 82 88 95 102 109 113 117 116 120 125 127 125 125 126 125 123 123 124 123 122 121 116 113 109 111
74 70 66 65 63 60 60 59 58 58 58 57 56 55 54 53 52 52 54 57 60 63 66 70 76 84 93 100 108 112 113 116 121 125 128 129 129 128 128 124 123 125 124 122 121 121 119 115 113
73 71 67 66 63 60 58 57 56 56 56 54 53 53 52 53 53 53 52 53 57 61 64 68 73 78 82 94 106 110 112 112 121 127 132 134 133 133 132 128 126 124 123 122 122 125 127 122 119
75 73 70 68 64 59 57 55 54 53 53 51 49 49 49 51 51 49 48 51 54 59 61 63 69 74 77 86 96 102 110 111 115 124 130 134 134 134 136 134 132 129 128 129 130 131 132 129 126
77 74 70 67 63 59 56 54 52 53 50 48 45 45 46 47 48 46 49 50 53 57 59 61 65 70 74 81 93 100 104 110 113 123 130 134 135 136 135 136 132 129 130 133 136 138 137 137 140
79 75 69 65 61 58 55 53 52 52 49 45 42 42 42 42 44 43 47 49 50 55 57 59 63 67 74 79 88 92 100 110 110 114 127 132 133 136 139 140 134 130 131 137 140 145 148 146 152
83 75 69 64 59 55 54 52 49 48 46 43 39 41 42 41 41 38 45 51 51 53 55 59 61 63 66 79 85 86 95 101 103 109 121 129 132 137 142 145 143 146 147 148 151 155 158 154 160
89 77 68 60 54 51 51 50 47 46 45 41 38 38 41 42 40 39 44 51 53 55 55 56 59 60 61 68 76 75 84 98 102 115 123 133 139 145 147 151 154 168 180 173 168 168 175 175 184
96 79 66 56 51 49 49 48 46 45 42 40 38 37 37 39 40 41 44 50 50 55 55 54 54 57 60 61 68 67 68 82 93 108 122 127 135 147 152 159 185 195 202 194 181 183 186 198 211
102 77 61 53 50 47 48 46 44 43 40 39 38 37 36 38 39 39 41 45 49 52 54 52 55 59 62 62 61 63 67 66 73 91 102 105 100 124 159 166 203 198 198 198 201 205 217 233 239
104 78 66 55 48 44 46 46 43 42 39 38 37 35 35 36 36 37 39 42 47 51 53 53 54 58 61 61 59 58 58 59 65 78 85 88 89 88 144 196 190 205 207 209 221 220 230 238 238
167 138 72 49 39 40 42 41 41 39 37 36 35 34 34 35 34 35 38 41 44 49 52 52 54 57 58 59 57 57 55 53 59 66 69 68 68 59 44 127 192 203 206 217 239 250 249 253 254
187 177 155 8 16 28 38 40 38 35 33 32 32 32 32 34 34 35 37 39 43 48 50 50 52 53 55 56 55 54 52 49 53 58 61 59 52 46 51 46 23 246 239 253 261 259 256 257 260
199 195 220 280 336 9 29 34 31 29 28 28 27 27 29 31 31 33 36 37 40 44 46 48 50 52 53 53 53 51 50 48 50 51 54 55 49 44 41 44 38 21 274 267 281 276 264 264 267
215 215 231 259 295 335 7 15 18 22 25 24 22 23 26 26 27 28 33 35 38 41 44 47 49 51 50 50 52 52 49 48 48 48 46 44 43 33 26 22 12 349 313 286 281 284 283 279 275
222 230 238 253 283 320 358 2 357 12 15 15 16 17 19 20 22 24 29 33 36 40 44 47 47 47 45 46 48 50 49 48 46 44 42 39 31 24 15 360 347 333 315 301 289 284 288 289 285
227 236 242 249 258 280 325 352 341 0 3 7 9 12 15 17 19 21 24 28 32 36 41 44 44 43 44 45 44 43 42 39 37 34 30 23 22 14 3 350 338 329 317 304 294 285 285 287 289
233 238 244 249 256 263 279 314 327 341 349 354 358 4 10 16 17 16 18 23 28 32 37 40 40 41 44 43 41 39 36 34 32 26 19 14 10 2 351 343 336 328 317 303 292 288 284 285 287
233 237 245 250 256 258 264 277 293 317 330 339 348 358 4 9 11 12 13 16 21 27 31 33 33 35 36 37 36 33 31 29 28 23 16 10 4 359 351 344 333 323 316 305 295 289 288 286 283
232 232 233 236 247 259 267 266 281 303 315 327 338 349 358 1 4 6 8 11 14 19 23 25 27 28 28 28 29 28 25 24 24 21 16 11 4 358 354 350 343 327 318 310 300 294 290 290 287
233 232 233 240 243 248 255 258 270 285 298 312 322 333 346 350 354 355 355 357 4 8 12 15 19 20 21 20 20 20 19 20 19 16 13 8 2 357 352 346 342 335 326 318 308 302 296 294 293
231 233 235 235 242 247 256 262 262 273 285 297 304 314 328 337 341 343 345 345 351 358 2 3 3 6 10 12 13 15 12 10 8 6 4 2 358 356 351 345 339 332 327 322 314 308 301 297 293
232 232 235 238 239 241 252 258 258 265 273 284 295 302 310 317 328 335 336 337 341 347 351 354 355 0 2 1 2 3 3 0 358 356 354 354 353 351 349 344 338 332 328 321 314 308 303 299 297
231 233 236 238 243 243 245 252 256 257 264 274 287 294 299 303 312 322 328 330 332 337 341 342 341 343 344 347 347 348 350 352 349 346 346 345 346 346 345 340 335 332 328 322 316 311 307 304 301